Weather History for KDPA - May, 2014

Change the Weather History Date:

Wednesday, May 7, 2014

  Actual Average Record
Temperature  
Mean Temperature 65 °F 57 °F  
Max Temperature 81 °F 68 °F 83 °F (2015)
Min Temperature 49 °F 45 °F 37 °F (2006)
Degree Days  
Heating Degree Days 0 9  
Month to date heating degree days 86 69  
Since 1 July heating degree days 7459 6135  
Cooling Degree Days 0 1  
Month to date cooling degree days 0 2  
Year to date cooling degree days 0 6  
Growing Degree Days 15 (Base 50)    
Moisture  
Dew Point 46 °F    
Average Humidity 60    
Maximum Humidity 86    
Minimum Humidity 47    
Precipitation  
Precipitation 0.03 in 0.16 in 1.86 in (1998)
Month to date precipitation 0.16 1.05  
Year to date precipitation 3.91 9.49  
Sea Level Pressure  
Sea Level Pressure 29.81 in    
Wind  
Wind Speed 8 mph (East)    
Max Wind Speed 17 mph    
Max Gust Speed 22 mph    
Visibility 10 miles    
Events      
T = Trace of Precipitation, MM = Missing Value Source: NWS Daily Summary

Daily Weather History Graph

Daily Weather History Graph

Search for Another Location

Airport or City:

Trip Planner

Search our weather history database for the weather conditions in past years. The results will help you decide how hot, cold, wet, or windy it might be!

Date:

Astronomy

May. 07, 2014 Rise Set
Actual Time 5:41 AM CDT 7:58 PM CDT
Civil Twilight 5:10 AM CDT 8:29 PM CDT
Nautical Twilight 4:32 AM CDT 9:07 PM CDT
Astronomical Twilight 3:50 AM CDT 9:50 PM CDT
Moon 12:56 PM CDT (5/7) 1:47 AM CDT (5/7)
Length of Visible Light 15h 18m
Length of Day
14h 16m
First Quarter, 55% of the Moon is Illuminated
May 7
First Quarter
May 14
Full
May 21
Last Quarter
May 28
New
Jun 5
First Quarter

Hourly Weather History & Observations

Time (CDT) Temp. Heat Index Dew Point Humidity Pressure Visibility Wind Dir Wind Speed Gust Speed Precip Events Conditions
12:52 AM 57.0 °F - 37.0 °F 47% 29.86 in 10.0 mi East 11.5 mph - N/A   Clear
1:52 AM 55.9 °F - 37.0 °F 49% 29.83 in 10.0 mi East 11.5 mph - N/A   Clear
2:52 AM 55.9 °F - 36.0 °F 47% 29.82 in 10.0 mi ESE 10.4 mph - N/A   Clear
4:52 AM 55.9 °F - 37.0 °F 49% 29.81 in 10.0 mi East 6.9 mph - N/A   Clear
5:52 AM 52.0 °F - 37.9 °F 59% 29.82 in 10.0 mi ENE 10.4 mph - N/A   Clear
7:52 AM 54.0 °F - 39.9 °F 59% 29.85 in 10.0 mi East 9.2 mph - N/A   Clear
8:52 AM 57.9 °F - 42.1 °F 56% 29.85 in 10.0 mi East 10.4 mph - N/A   Clear
9:52 AM 63.0 °F - 46.0 °F 54% 29.83 in 10.0 mi East 8.1 mph - N/A   Clear
10:52 AM 64.9 °F - 48.0 °F 54% 29.83 in 10.0 mi ESE 6.9 mph - N/A   Clear
11:52 AM 72.0 °F - 52.0 °F 49% 29.79 in 10.0 mi SSE 10.4 mph - N/A   Clear
12:52 PM 71.1 °F - 54.0 °F 55% 29.84 in 10.0 mi South 5.8 mph - N/A   Partly Cloudy
1:52 PM 75.0 °F - 55.9 °F 51% 29.80 in 10.0 mi ESE 10.4 mph - N/A   Clear
2:52 PM 78.1 °F - 57.0 °F 48% 29.79 in 10.0 mi ESE 10.4 mph - N/A   Clear
3:52 PM 80.1 °F 80.6 °F 57.9 °F 47% 29.78 in 10.0 mi ENE 10.4 mph - 0.00 in   Clear
5:16 PM 66.9 °F - 54.0 °F 63% 29.76 in 10.0 mi East 15.0 mph - 0.03 in   Scattered Clouds
5:52 PM 66.0 °F - 53.1 °F 63% 29.78 in 10.0 mi NNE 9.2 mph - 0.03 in   Clear
6:52 PM 61.0 °F - 48.9 °F 64% 29.78 in 10.0 mi NE 10.4 mph - N/A   Clear
7:52 PM 55.0 °F - 46.0 °F 72% 29.78 in 10.0 mi NNE 10.4 mph - N/A   Clear
8:52 PM 53.1 °F - 46.0 °F 77% 29.79 in 10.0 mi NE 6.9 mph - N/A   Clear
9:52 PM 50.0 °F - 46.0 °F 86% 29.80 in 9.0 mi North 3.5 mph - N/A   Clear
10:52 PM 50.0 °F - 45.0 °F 83% 29.79 in 8.0 mi Calm Calm - N/A   Clear
11:52 PM 50.0 °F - 46.0 °F 86% 29.79 in 8.0 mi Calm Calm - N/A   Clear